[[{"header":{"parameterUnit":"m.s-1","parameterCategory":1,"la1":30.2991,"la2":30.254,"lo1":-89.0895,"lo2":-89.0444,"dy":0.0017,"dx":0.0017,"nx":28,"ny":28,"refTime":"2025-09-02T21:00:00:Z","depth":0,"parameterNumber":2,"parameterNumberName":"U-component_of_WINDS"},"data":[0,0,0,0,0,0,0,0,0,0,0,0,0,0,0,0,0,0,0,0,0,0,0,0,0,0,0,0,0,0,0,0,0,0,0,0,0,0,0,0,0,0,0,0,0,0,0,0,0,0,0,0,0,0,0,0,0,0,-0.0978,-0.0978,0,-0.0991,-0.0992,-0.0992,-0.0982,-0.0982,-0.0981,-0.0981,-0.0996,-0.0997,-0.0998,0,0,0,0,0,0,0,0,0,0,0,0,0,-0.0945,-0.0946,-0.0978,-0.0978,-0.0978,-0.0991,-0.0992,-0.0992,-0.0982,-0.0982,-0.0981,-0.0981,-0.0996,-0.0997,-0.0998,0,0,0,0,0,0,0,0,0,0,0,0,0,-0.0959,-0.0946,-0.0978,-0.0975,-0.0975,-0.0991,-0.0992,-0.0992,-0.0982,-0.0982,-0.0981,-0.0981,-0.0996,-0.0997,-0.0998,-0.1018,0,0,-0.1002,-0.1002,0,0,0,0,0,0,0,0,-0.0958,-0.096,-0.0975,-0.0975,-0.0975,-0.0984,-0.0986,-0.1001,-0.0983,-0.098,-0.0981,-0.098,-0.0993,-0.0994,-0.0998,-0.1019,-0.102,-0.1002,-0.1002,-0.1003,-0.1003,0,0,0,0,0,0,0,-0.0957,-0.096,-0.0983,-0.0975,-0.0975,-0.0974,-0.0975,-0.0988,-0.099,-0.098,-0.0979,-0.0981,-0.0993,-0.0997,-0.0998,-0.102,-0.1002,-0.1003,-0.1003,-0.1004,-0.1059,-0.106,0,0,0,0,0,0,-0.0957,-0.0959,-0.0983,-0.0984,-0.0965,-0.0975,-0.0976,-0.0982,-0.0989,-0.099,-0.0981,-0.098,-0.0995,-0.0997,-0.0999,-0.1024,-0.1003,-0.1004,-0.1005,-0.1059,-0.106,-0.106,0,0,0,0,0,0,-0.0956,-0.0959,-0.0982,-0.0971,-0.0974,-0.0976,-0.0983,-0.0983,-0.0987,-0.0991,-0.0991,-0.0986,-0.0995,-0.0997,-0.1014,-0.1025,-0.1005,-0.1006,-0.1058,-0.1059,-0.106,-0.1075,0,0,0,0,0,0,-0.0955,-0.0959,-0.0966,-0.0971,-0.0975,-0.0996,-0.0983,-0.0983,-0.0989,-0.0988,-0.0995,-0.0995,-0.0995,-0.1012,-0.1015,-0.1026,-0.1007,-0.1057,-0.1058,-0.106,-0.1073,-0.1076,-0.1079,0,0,0,0,0,-0.0954,-0.0969,-0.0966,-0.0969,-0.0984,-0.0997,-0.0999,-0.0997,-0.099,-0.0998,-0.1,-0.0995,-0.1023,-0.1014,-0.1017,-0.1029,-0.1056,-0.1058,-0.1059,-0.1072,-0.1076,-0.1079,0,0,0,0,0,0,-0.0965,-0.097,-0.0967,-0.0984,-0.099,-0.0995,-0.1005,-0.1001,-0.101,-0.1008,-0.1006,-0.1008,-0.1026,-0.1029,-0.1018,-0.1049,-0.1038,-0.1041,-0.1047,-0.105,-0.1053,-0.1053,-0.1008,0,0,0,0,0,-0.097,-0.098,-0.0983,-0.0999,-0.1002,-0.1003,-0.1009,-0.1007,-0.1013,-0.1016,-0.102,-0.1026,-0.1037,-0.1043,-0.1053,-0.1073,-0.1076,-0.1083,-0.1086,-0.1088,-0.1091,-0.1103,-0.1107,-0.1066,-0.1066,-0.1066,0,0,-0.098,-0.0983,-0.099,-0.1001,-0.1006,-0.1017,-0.1005,-0.1017,-0.1026,-0.1018,-0.1034,-0.1037,-0.1044,-0.1063,-0.1072,-0.1066,-0.1102,-0.109,-0.1092,-0.1093,-0.1105,-0.1109,-0.1113,-0.1067,-0.1067,-0.1067,0,0,-0.1003,-0.1006,-0.102,-0.1025,-0.1032,-0.1032,-0.1036,-0.1041,-0.1043,-0.1059,-0.1054,-0.1064,-0.1082,-0.1088,-0.1093,-0.1119,-0.1115,-0.1122,-0.1137,-0.1149,-0.1153,-0.1156,-0.1167,-0.117,-0.1125,-0.1125,-0.1125,0,-0.1015,-0.1031,-0.1028,-0.1041,-0.1046,-0.104,-0.1054,-0.1059,-0.1069,-0.1073,-0.1067,-0.1089,-0.1094,-0.1115,-0.1121,-0.1125,-0.113,-0.1122,-0.1152,-0.1155,-0.1158,-0.1168,-0.1172,-0.1126,-0.1126,-0.1125,-0.1125,0,-0.1045,-0.1056,-0.1066,-0.1076,-0.1083,-0.1096,-0.1097,-0.1104,-0.1102,-0.1103,-0.112,-0.1125,-0.1137,-0.1141,-0.1139,-0.1162,-0.1159,-0.1152,-0.1141,-0.1163,-0.1173,-0.1176,-0.1127,-0.1127,-0.1126,-0.1126,0,0,-0.1077,-0.1085,-0.1089,-0.1094,-0.1101,-0.111,-0.1123,-0.1134,-0.1141,-0.1148,-0.116,-0.1175,-0.117,-0.1176,-0.1175,-0.1185,-0.1208,-0.1177,-0.1178,-0.1184,-0.1235,-0.1241,-0.1245,-0.1204,-0.1205,-0.1206,-0.1235,0,-0.1102,-0.1125,-0.1123,-0.1146,-0.1157,-0.1151,-0.1163,-0.1169,-0.1171,-0.1181,-0.1183,-0.1195,-0.1186,-0.119,-0.1199,-0.1203,-0.1218,-0.12,-0.1217,-0.1218,-0.1217,-0.125,-0.1256,-0.1283,-0.1238,-0.1239,-0.124,0,-0.1134,-0.1143,-0.1166,-0.1172,-0.1177,-0.1188,-0.1198,-0.1207,-0.1215,-0.1215,-0.1223,-0.122,-0.1234,-0.1222,-0.1243,-0.1231,-0.1238,-0.1241,-0.1242,-0.1244,-0.1231,-0.1255,-0.1292,-0.1297,-0.1245,-0.1245,-0.1244,0,-0.1157,-0.1174,-0.119,-0.1194,-0.1202,-0.121,-0.1214,-0.122,-0.1227,-0.1236,-0.1241,-0.1251,-0.1258,-0.1266,-0.1267,-0.1258,-0.1288,-0.1276,-0.1291,-0.1291,-0.1298,-0.1298,-0.1338,-0.13,-0.13,-0.13,-0.13,0,-0.1186,-0.1201,-0.1201,-0.1211,-0.1228,-0.1226,-0.1243,-0.1246,-0.1252,-0.1264,-0.1259,-0.127,-0.1269,-0.128,-0.1281,-0.1299,-0.1301,-0.1303,-0.1303,-0.1304,-0.1304,-0.131,-0.1308,-0.1301,-0.1301,-0.1301,-0.1301,0,-0.1215,-0.1215,-0.1233,-0.1239,-0.124,-0.1253,-0.1258,-0.1268,-0.127,-0.1285,-0.1288,-0.129,-0.1304,-0.1305,-0.132,-0.132,-0.1343,-0.134,-0.134,-0.134,-0.1356,-0.1355,-0.1402,-0.1408,-0.1365,-0.1365,-0.1365,0,-0.1234,-0.1245,-0.1252,-0.126,-0.1264,-0.1275,-0.1282,-0.1281,-0.1289,-0.1298,-0.1308,-0.132,-0.133,-0.1352,-0.1356,-0.1368,-0.1366,-0.1382,-0.1368,-0.1369,-0.1368,-0.1368,-0.137,-0.1385,-0.1386,-0.1386,-0.1386,0,-0.1269,-0.1268,-0.1278,-0.1289,-0.1297,-0.1306,-0.1313,-0.132,-0.1319,-0.1328,-0.1342,-0.135,-0.1365,-0.1379,-0.139,-0.1395,-0.1391,-0.139,-0.1395,-0.1397,-0.1397,-0.1399,-0.1349,-0.139,-0.1389,-0.1389,-0.1389,-0.1389,-0.1294,-0.1305,-0.1311,-0.1323,-0.1329,-0.1336,-0.1347,-0.1349,-0.136,-0.1373,-0.1371,-0.1387,-0.1394,-0.141,-0.1415,-0.1428,-0.1423,-0.1429,-0.143,-0.1432,-0.1435,-0.1394,-0.143,-0.143,-0.143,-0.143,-0.1429,0,-0.133,-0.1334,-0.1345,-0.1356,-0.1365,-0.136,-0.1368,-0.1377,-0.139,-0.1398,-0.1408,-0.1424,-0.1437,-0.1441,-0.1454,-0.1464,-0.1462,-0.1467,-0.1467,-0.1469,-0.1438,-0.1433,-0.1468,-0.1468,-0.1468,-0.1468,-0.1468,-0.1468,-0.135,-0.1368,-0.1368,-0.1389,-0.1393,-0.1408,-0.1413,-0.142,-0.1426,-0.1444,-0.1455,-0.1458,-0.1465,-0.1478,-0.149,-0.1491,-0.1497,-0.1503,-0.1503,-0.1474,-0.1471,-0.1467,-0.1463,-0.1503,-0.1504,-0.1533,-0.1534,-0.1534]},{"header":{"parameterUnit":"m.s-1","parameterCategory":1,"la1":30.2991,"la2":30.254,"lo1":-89.0895,"lo2":-89.0444,"dy":0.0017,"dx":0.0017,"nx":28,"ny":28,"refTime":"2025-09-02T21:00:00:Z","depth":0,"parameterNumber":3,"parameterNumberName":"V-component_of_WINDS"},"data":[0,0,0,0,0,0,0,0,0,0,0,0,0,0,0,0,0,0,0,0,0,0,0,0,0,0,0,0,0,0,0,0,0,0,0,0,0,0,0,0,0,0,0,0,0,0,0,0,0,0,0,0,0,0,0,0,0,0,3.6,3.6,0,3.6008,3.6008,3.6008,3.597,3.5968,3.5967,3.5966,3.5974,3.5975,3.5976,0,0,0,0,0,0,0,0,0,0,0,0,0,3.5949,3.595,3.6,3.6,3.6,3.6008,3.6008,3.6008,3.597,3.5968,3.5967,3.5966,3.5974,3.5975,3.5977,0,0,0,0,0,0,0,0,0,0,0,0,0,3.5965,3.595,3.6,3.5982,3.598,3.6008,3.6008,3.6008,3.597,3.5968,3.5967,3.5965,3.5973,3.5975,3.5977,3.6022,0,0,3.5983,3.5983,0,0,0,0,0,0,0,0,3.5964,3.5967,3.5984,3.5983,3.5981,3.5986,3.5993,3.6013,3.597,3.5974,3.5966,3.5964,3.5979,3.5981,3.5986,3.6022,3.6023,3.5983,3.5984,3.5985,3.5985,0,0,0,0,0,0,0,3.5963,3.5967,3.6003,3.5984,3.5983,3.5973,3.5973,3.5996,3.5986,3.5973,3.5971,3.5972,3.5978,3.5984,3.5986,3.6023,3.5983,3.5984,3.5985,3.5986,3.6094,3.6096,0,0,0,0,0,0,3.5965,3.5966,3.6003,3.6003,3.5968,3.5975,3.5975,3.5986,3.5986,3.5984,3.5974,3.597,3.5982,3.5984,3.5986,3.6036,3.5985,3.5986,3.5987,3.6092,3.6094,3.6096,0,0,0,0,0,0,3.5964,3.5968,3.6002,3.5984,3.5987,3.5978,3.599,3.5987,3.5993,3.5986,3.5983,3.5982,3.598,3.5983,3.6013,3.6036,3.5987,3.5989,3.609,3.6093,3.6095,3.6139,0,0,0,0,0,0,3.5962,3.5968,3.5986,3.5984,3.5988,3.603,3.5991,3.5989,3.5996,3.5992,3.5993,3.5991,3.5979,3.601,3.6015,3.6038,3.599,3.6088,3.6091,3.6094,3.6135,3.6143,3.6149,0,0,0,0,0,3.5961,3.5998,3.5987,3.5991,3.601,3.6031,3.6033,3.6019,3.5999,3.6015,3.601,3.5991,3.6033,3.6013,3.6018,3.6042,3.6086,3.609,3.6094,3.6132,3.6141,3.6149,0,0,0,0,0,0,3.6003,3.5998,3.5985,3.6023,3.6028,3.6024,3.6045,3.603,3.604,3.6036,3.6018,3.6018,3.605,3.605,3.6027,3.6085,3.6056,3.6061,3.6083,3.6092,3.6099,3.6097,3.5992,0,0,0,0,0,3.6016,3.6034,3.6029,3.6063,3.6066,3.6055,3.6064,3.6053,3.6057,3.6058,3.6056,3.606,3.6074,3.6083,3.6096,3.6136,3.6134,3.6155,3.6162,3.6167,3.6171,3.619,3.6198,3.6109,3.6109,3.6109,0,0,3.6045,3.6044,3.6057,3.6071,3.6073,3.6091,3.6057,3.6078,3.609,3.6061,3.6088,3.6087,3.609,3.6124,3.6139,3.6125,3.6196,3.6172,3.6177,3.6177,3.6195,3.6203,3.621,3.6112,3.6111,3.6111,0,0,3.6105,3.6107,3.6135,3.6137,3.6141,3.6134,3.614,3.6139,3.6137,3.6164,3.6141,3.6156,3.6181,3.6184,3.6188,3.6249,3.623,3.6253,3.6288,3.6307,3.6314,3.632,3.6339,3.6346,3.6258,3.6258,3.6258,0,3.6139,3.6165,3.6151,3.6172,3.6178,3.6153,3.618,3.6183,3.6191,3.6195,3.6179,3.6209,3.621,3.6243,3.6257,3.6263,3.6268,3.6252,3.6314,3.632,3.6325,3.6343,3.6351,3.626,3.626,3.626,3.626,0,3.6206,3.6225,3.6246,3.6254,3.6263,3.6287,3.6275,3.6286,3.6274,3.6268,3.6295,3.6295,3.6306,3.6313,3.6302,3.6345,3.6335,3.6317,3.6288,3.6337,3.6353,3.636,3.6264,3.6263,3.6262,3.6262,0,0,3.6292,3.629,3.6298,3.63,3.6302,3.6315,3.6338,3.6349,3.6357,3.6364,3.6381,3.6402,3.6385,3.639,3.6379,3.6396,3.644,3.6375,3.6375,3.6385,3.6484,3.6496,3.6504,3.6429,3.643,3.6431,3.6483,0,3.6349,3.6387,3.6373,3.6412,3.6427,3.6403,3.6422,3.6425,3.642,3.6432,3.6427,3.6441,3.6419,3.6422,3.6437,3.6432,3.6459,3.6428,3.6443,3.6444,3.644,3.6513,3.6526,3.6574,3.6489,3.649,3.6491,0,3.642,3.6428,3.6467,3.6464,3.647,3.6488,3.6495,3.6508,3.651,3.6505,3.6511,3.6496,3.6517,3.6489,3.6517,3.6496,3.6501,3.65,3.6501,3.65,3.6469,3.6511,3.659,3.6596,3.6502,3.6501,3.65,0,3.6475,3.6496,3.6521,3.6524,3.6522,3.6535,3.6535,3.6535,3.6542,3.6549,3.6552,3.6562,3.6567,3.6575,3.6562,3.6544,3.6591,3.6563,3.6586,3.6586,3.6595,3.6594,3.6673,3.6603,3.6603,3.6603,3.6603,0,3.6538,3.6562,3.6545,3.6561,3.6587,3.6572,3.6598,3.6596,3.6596,3.661,3.6591,3.6604,3.6588,3.66,3.6591,3.6614,3.6617,3.6612,3.6609,3.6613,3.6613,3.6614,3.6609,3.6605,3.6604,3.6604,3.6604,0,3.6603,3.6593,3.6619,3.6615,3.6614,3.6633,3.6629,3.6643,3.6637,3.6655,3.6658,3.6648,3.6661,3.665,3.6663,3.6656,3.6686,3.6679,3.6684,3.6682,3.6704,3.6701,3.6784,3.6794,3.6721,3.6721,3.6722,0,3.6642,3.666,3.6657,3.6665,3.6666,3.6679,3.6685,3.6671,3.6678,3.6682,3.6694,3.6706,3.6713,3.6735,3.6728,3.6737,3.6729,3.6758,3.673,3.6732,3.6726,3.6724,3.6725,3.6762,3.6763,3.6764,3.6765,0,3.6712,3.6706,3.6716,3.6724,3.6732,3.6738,3.6742,3.6749,3.6734,3.6744,3.6756,3.6762,3.6774,3.6785,3.6792,3.6791,3.6775,3.6774,3.6779,3.6781,3.6782,3.6779,3.6697,3.6771,3.677,3.677,3.677,3.6769,3.6764,3.6778,3.6777,3.6788,3.679,3.6794,3.6806,3.6801,3.6811,3.6819,3.6811,3.6825,3.6826,3.6833,3.6834,3.6845,3.6833,3.6841,3.6843,3.6845,3.6847,3.6783,3.6847,3.6846,3.6846,3.6846,3.6846,0,3.6831,3.6829,3.684,3.6845,3.6854,3.6838,3.6842,3.685,3.6862,3.6864,3.6872,3.6885,3.6895,3.689,3.6898,3.6908,3.69,3.691,3.6908,3.6908,3.6858,3.6851,3.6916,3.6916,3.6916,3.6916,3.6916,3.6916,3.6866,3.6888,3.6882,3.6904,3.6902,3.6915,3.6918,3.6921,3.6923,3.6938,3.6946,3.6942,3.6941,3.6949,3.6957,3.6955,3.6958,3.697,3.6965,3.6918,3.6911,3.6905,3.6898,3.6971,3.6971,3.7013,3.7013,3.7014]}]]